Tracking 30995 objects as of 6-Jul-2025
HD Live streaming from Space Station
objects crossing your sky now

SL-14 DEB

Track SL-14 DEB now!
10-day predictions


NORAD ID: 45289
Int'l Code: 1991-056AB
Perigee: 1,198.4 km
Apogee: 1,474.7 km
Inclination: 82.5 °
Period: 112.2 minutes
Semi major axis: 7707 km
RCS: Unknown
Launch date: August 15, 1991
Source: Commonwealth of Independent States (former USSR) (CIS)
Launch site: PLESETSK MISSILE AND SPACE COMPLEX (PKMTR)

Note: This is SATELLITE DEBRIS
Your satellite tracking list
Your tracking list is empty




NASA's NSSDC Master Catalog

Two Line Element Set (TLE):
1 45289U 91056AB  25186.22892052  .00001098  00000-0  42893-2 0  9997
2 45289  82.5373 103.1968 0179214 315.3665  43.3125 12.82999890251765
Source of the keplerian elements: AFSPC